| time (UTC) | temp C | wind direction | speed KPH | gust KPH | rain 1hr cm | rain 24hr cm | rain mn cm | humidity % | barometer mb |
| 20260506001541 | 6 | 146 | 0.0 | 0.0 | 0.00 | 0.00 | 0.00 | 84 | 1006.3 |
| 20260506000130 | 5 | 269 | 0.0 | 3.2 | 0.00 | 0.00 | 0.00 | 84 | 1006.3 |
| 20260505234542 | 6 | 104 | 0.0 | 1.6 | 0.00 | 0.00 | 0.00 | 82 | 1006.2 |
| 20260505233132 | 6 | 163 | 0.0 | 0.0 | 0.00 | 0.00 | 0.00 | 80 | 1006.2 |
| 20260505231552 | 7 | 65 | 0.0 | 0.0 | 0.00 | 0.00 | 0.00 | 80 | 1006.2 |
| 20260505230136 | 6 | 209 | 0.0 | 0.0 | 0.00 | 0.00 | 0.00 | 81 | 1006.2 |
| 20260505224544 | 8 | 176 | 0.0 | 0.0 | 0.00 | 0.00 | 0.00 | 76 | 1006.0 |
| 20260505223136 | 8 | 178 | 0.0 | 0.0 | 0.00 | 0.00 | 0.00 | 75 | 1006.0 |
| 20260505221600 | 8 | 67 | 0.0 | 3.2 | 0.00 | 0.00 | 0.00 | 74 | 1005.8 |
| 20260505220002 | 8 | 247 | 0.0 | 1.6 | 0.00 | 0.00 | 0.00 | 74 | 1005.7 |
| 20260505214558 | 8 | 198 | 0.0 | 1.6 | 0.00 | 0.00 | 0.00 | 72 | 1005.7 |
| 20260505213009 | 8 | 233 | 0.0 | 0.0 | 0.00 | 0.00 | 0.00 | 74 | 1005.8 |
| 20260505211559 | 9 | 234 | 0.0 | 1.6 | 0.00 | 0.00 | 0.00 | 71 | 1005.7 |
| 20260505210014 | 10 | 32 | 0.0 | 3.2 | 0.00 | 0.00 | 0.00 | 70 | 1005.5 |
| 20260505204612 | 10 | 205 | 0.0 | 0.0 | 0.00 | 0.00 | 0.00 | 68 | 1005.5 |
| 20260505203022 | 10 | 313 | 0.0 | 0.0 | 0.00 | 0.00 | 0.00 | 66 | 1005.2 |
| 20260505201606 | 11 | 344 | 0.0 | 1.6 | 0.00 | 0.00 | 0.00 | 64 | 1005.0 |
| 20260505200018 | 12 | 290 | 4.8 | 9.7 | 0.00 | 0.00 | 0.00 | 58 | 1004.8 |
| 20260505194608 | 14 | 192 | 1.6 | 20.9 | 0.00 | 0.00 | 0.00 | 52 | 1004.6 |
| 20260505193031 | 15 | 77 | 1.6 | 8.0 | 0.00 | 0.00 | 0.00 | 51 | 1004.3 |
| 20260505191611 | 15 | 16 | 6.4 | 20.9 | 0.00 | 0.00 | 0.00 | 50 | 1004.3 |
| 20260505190020 | 15 | 119 | 0.0 | 12.9 | 0.00 | 0.00 | 0.00 | 50 | 1004.0 |
| 20260505184608 | 16 | 80 | 1.6 | 12.9 | 0.00 | 0.00 | 0.00 | 47 | 1003.9 |
| 20260505183021 | 16 | 59 | 6.4 | 22.5 | 0.00 | 0.00 | 0.00 | 47 | 1003.7 |
| 20260505181617 | 16 | 86 | 3.2 | 25.7 | 0.00 | 0.00 | 0.00 | 47 | 1003.5 |
| 20260505180019 | 16 | 274 | 3.2 | 24.1 | 0.00 | 0.00 | 0.00 | 46 | 1003.4 |
| 20260505174610 | 16 | 52 | 6.4 | 24.1 | 0.00 | 0.00 | 0.00 | 46 | 1003.3 |
| 20260505173029 | 17 | 349 | 8.0 | 22.5 | 0.00 | 0.00 | 0.00 | 44 | 1003.3 |
| 20260505171612 | 17 | 70 | 1.6 | 22.5 | 0.00 | 0.00 | 0.00 | 46 | 1003.3 |
| 20260505170032 | 17 | 333 | 6.4 | 20.9 | 0.00 | 0.00 | 0.00 | 44 | 1003.2 |
| 20260505164618 | 17 | 58 | 4.8 | 27.4 | 0.00 | 0.00 | 0.00 | 45 | 1003.2 |
| 20260505163036 | 17 | 82 | 11.3 | 32.2 | 0.00 | 0.00 | 0.00 | 45 | 1003.2 |
| 20260505161506 | 17 | 340 | 8.0 | 25.7 | 0.00 | 0.00 | 0.00 | 45 | 1003.5 |
| 20260505153055 | 18 | 172 | 4.8 | 24.1 | 0.00 | 0.00 | 0.00 | 44 | 1003.4 |
| 20260505151634 | 18 | 101 | 6.4 | 29.0 | 0.00 | 0.00 | 0.00 | 43 | 1003.4 |
| 20260505124606 | 20 | 331 | 9.7 | 46.7 | 0.00 | 0.00 | 0.00 | 39 | 1003.1 |
| 20260505123125 | 20 | 63 | 11.3 | 33.8 | 0.00 | 0.00 | 0.00 | 39 | 1003.1 |
| 20260505121531 | 18 | 96 | 8.0 | 25.7 | 0.00 | 0.00 | 0.00 | 40 | 1003.0 |
| 20260505120116 | 18 | 83 | 1.6 | 24.1 | 0.00 | 0.00 | 0.00 | 42 | 1003.3 |
| 20260505114517 | 18 | 227 | 4.8 | 22.5 | 0.00 | 0.00 | 0.00 | 40 | 1003.4 |
| 20260505113114 | 19 | 88 | 3.2 | 32.2 | 0.00 | 0.00 | 0.00 | 40 | 1003.3 |
| 20260505111502 | 19 | 71 | 9.7 | 35.4 | 0.00 | 0.00 | 0.00 | 38 | 1003.0 |
| 20260505101518 | 21 | 194 | 3.2 | 22.5 | 0.00 | 0.00 | 0.00 | 35 | 1003.9 |
| 20260505100115 | 21 | 203 | 1.6 | 16.1 | 0.00 | 0.00 | 0.00 | 35 | 1003.9 |
| 20260505094531 | 21 | 170 | 8.0 | 22.5 | 0.00 | 0.00 | 0.00 | 33 | 1004.1 |
| 20260505093121 | 21 | 64 | 0.0 | 6.4 | 0.00 | 0.00 | 0.00 | 37 | 1004.1 |
| 20260505091540 | 21 | 89 | 1.6 | 14.5 | 0.00 | 0.00 | 0.00 | 38 | 1004.2 |
| 20260505090124 | 20 | 333 | 0.0 | 4.8 | 0.00 | 0.00 | 0.00 | 41 | 1004.3 |
| 20260505084546 | 19 | 63 | 0.0 | 4.8 | 0.00 | 0.00 | 0.00 | 45 | 1004.6 |
| 20260505083128 | 18 | 299 | 0.0 | 6.4 | 0.00 | 0.00 | 0.00 | 47 | 1004.7 |
| 20260505081551 | 18 | 103 | 0.0 | 6.4 | 0.00 | 0.00 | 0.00 | 52 | 1005.0 |
| 20260505080000 | 17 | 240 | 0.0 | 4.8 | 0.00 | 0.00 | 0.00 | 54 | 1005.4 |
| 20260505074541 | 16 | 300 | 0.0 | 1.6 | 0.00 | 0.00 | 0.00 | 55 | 1005.6 |
| 20260505073119 | 14 | 220 | 0.0 | 3.2 | 0.00 | 0.00 | 0.00 | 58 | 1005.8 |
| 20260505071534 | 13 | 308 | 0.0 | 3.2 | 0.00 | 0.00 | 0.00 | 59 | 1006.0 |
| 20260505070113 | 13 | 135 | 0.0 | 1.6 | 0.00 | 0.00 | 0.00 | 63 | 1006.1 |
| 20260505064520 | 12 | 271 | 0.0 | 3.2 | 0.00 | 0.00 | 0.00 | 69 | 1006.3 |
| 20260505063103 | 12 | 319 | 0.0 | 3.2 | 0.00 | 0.00 | 0.00 | 64 | 1006.5 |
| 20260505061502 | 10 | 55 | 0.0 | 3.2 | 0.00 | 0.00 | 0.00 | 74 | 1006.5 |
| 20260505060047 | 9 | 50 | 0.0 | 1.6 | 0.00 | 0.00 | 0.00 | 78 | 1006.5 |
| 20260505054501 | 8 | 320 | 0.0 | 1.6 | 0.00 | 0.00 | 0.00 | 77 | 1006.7 |
| 20260505053111 | 7 | 306 | 0.0 | 0.0 | 0.00 | 0.00 | 0.00 | 78 | 1006.8 |
| 20260505051634 | 7 | 306 | 0.0 | 0.0 | 0.00 | 0.00 | 0.00 | 80 | 1006.8 |
| 20260505041631 | 3 | 192 | 0.0 | 3.2 | 0.00 | 0.00 | 0.00 | 86 | 1007.2 |
| 20260505040045 | 6 | 76 | 0.0 | 1.6 | 0.00 | 0.00 | 0.00 | 82 | 1007.1 |
| 20260505034502 | 5 | 214 | 0.0 | 0.0 | 0.00 | 0.00 | 0.00 | 83 | 1007.2 |
| 20260505033057 | 5 | 209 | 0.0 | 0.0 | 0.00 | 0.00 | 0.00 | 84 | 1007.1 |
| 20260505031517 | 5 | 209 | 0.0 | 0.0 | 0.00 | 0.00 | 0.00 | 84 | 1007.2 |
| 20260505030108 | 6 | 209 | 0.0 | 1.6 | 0.00 | 0.00 | 0.00 | 81 | 1007.3 |
| 20260505024526 | 6 | 150 | 0.0 | 0.0 | 0.00 | 0.00 | 0.00 | 83 | 1007.3 |
| 20260505023115 | 5 | 123 | 0.0 | 0.0 | 0.00 | 0.00 | 0.00 | 83 | 1007.3 |
| 20260505021536 | 7 | 120 | 0.0 | 1.6 | 0.00 | 0.00 | 0.00 | 77 | 1007.5 |
| 20260505020128 | 6 | 217 | 0.0 | 3.2 | 0.00 | 0.00 | 0.00 | 82 | 1007.7 |
| 20260505014546 | 6 | 207 | 0.0 | 1.6 | 0.00 | 0.00 | 0.00 | 81 | 1007.7 |
| 20260505013006 | 7 | 317 | 0.0 | 3.2 | 0.00 | 0.00 | 0.00 | 77 | 1007.7 |
| 20260505011612 | 7 | 222 | 0.0 | 0.0 | 0.00 | 0.00 | 0.00 | 80 | 1007.7 |
| 20260505010019 | 8 | 36 | 0.0 | 0.0 | 0.00 | 0.00 | 0.00 | 72 | 1007.7 |
| 20260505004618 | 7 | 209 | 0.0 | 1.6 | 0.00 | 0.00 | 0.00 | 79 | 1007.9 |
| 20260505003039 | 9 | 196 | 0.0 | 0.0 | 0.00 | 0.00 | 0.00 | 70 | 1007.9 |